sat.trackr.live / text

‹ back to catalog

STARLINK-35942

NORAD 66926 · 2025-286B

PAYLOAD ACTIVE UNKNOWN

§ Identity

Operator
Country
US
Launch date
2025-12-07
Launch site
AFWTR
Launch vehicle
Mass (kg)
RCS (m²)

Purposes: comms

External: N2YO · Heavens-Above · Gunter

§ Orbital elements

Epoch: 2026-09-20T11:30:32.241312Z

Period
93.85 min
Inclination
53.1596°
Eccentricity
0.0001001
Mean motion
15.34399865 rev/d
Perigee alt
462.0 km
Apogee alt
463.4 km
Semi-major
6,840.8 km
B*
3.5137e-4
RAAN
169.8697°
Arg perigee
87.5657°
Mean anomaly
272.5461°
Rev number
4,529

§ Raw data

STARLINK-359421 66926U 25286B   26263.47953983  .00011513  00000+0  35137-3 0  99912 66926  53.1596 169.8697 0001001  87.5657 272.5461 15.34399865 45296

JSON: /api/v1/satellites/66926 · /tle

For live sub-satellite position, see the globe view (requires WebGL).

§ Visibility from observer

Set your observer location to see the next 7 days of passes ≥ 10°. The values pass through the URL so the page stays shareable.

No JS? Fill the form by hand. The geolocation button needs JavaScript.